Ogden, KS

1:49 AM CDT on September 27, 2016 (GMT -0500)
Manhattan Regional

Weather History for KMHK - December, 2012

Change the Weather History Date:

Saturday, December 8, 2012

  Actual Average Record
Temperature  
Mean Temperature 36 °F 32 °F  
Max Temperature 48 °F 44 °F 60 °F (2008)
Min Temperature 24 °F 21 °F -11 °F (2005)
Degree Days  
Heating Degree Days 29 33  
Month to date heating degree days 145 250  
Since 1 July heating degree days 1103 1325  
Cooling Degree Days 0 0  
Month to date cooling degree days 0 0  
Year to date cooling degree days 1788 1362  
Moisture  
Dew Point 31 °F    
Average Humidity 76    
Maximum Humidity 92    
Minimum Humidity 60    
Precipitation  
Precipitation T in 0.04 in 0.19 in (1997)
Month to date precipitation 0.02 0.34  
Year to date precipitation 21.48 31.87  
Sea Level Pressure  
Sea Level Pressure 29.95 in    
Wind  
Wind Speed 4 mph (ESE)    
Max Wind Speed 13 mph    
Max Gust Speed 18 mph    
Visibility 6 miles    
Events      
T = Trace of Precipitation, MM = Missing Value Source: NWS Daily Summary

Daily Weather History Graph

Daily Weather History Graph

Search for Another Location

Airport or City:

Trip Planner

Search our weather history database for the weather conditions in past years. The results will help you decide how hot, cold, wet, or windy it might be!

Date:

Astronomy

Dec. 08, 2012 Rise Set
Actual Time 7:33 AM CST 5:03 PM CST
Civil Twilight 7:03 AM CST 5:33 PM CST
Nautical Twilight 6:30 AM CST 6:07 PM CST
Astronomical Twilight 5:58 AM CST 6:39 PM CST
Moon 2:01 AM CST (12/8) 1:32 PM CST (12/8)
Length of Visible Light 10h 29m
Length of Day
9h 29m
Waning Crescent, 28% of the Moon is Illuminated
Dec 8
Waning Crescent
Dec 13
New
Dec 19
First Quarter
Dec 28
Full
Jan 4
Last Quarter

Hourly Weather History & Observations

Time (CST) Temp. Windchill Dew Point Humidity Pressure Visibility Wind Dir Wind Speed Gust Speed Precip Events Conditions
12:52 AM 35.1 °F - 32.0 °F 89% 29.99 in 6.0 mi Calm Calm - N/A   Partly Cloudy
1:52 AM 33.1 °F - 30.9 °F 92% 29.98 in 7.0 mi Calm Calm - N/A   Clear
2:52 AM 32.0 °F 28.7 °F 30.0 °F 92% 29.99 in 5.0 mi West 3.5 mph - N/A   Clear
3:52 AM 32.0 °F 28.7 °F 28.9 °F 88% 29.99 in 6.0 mi West 3.5 mph - N/A   Clear
4:52 AM 30.0 °F 26.5 °F 28.0 °F 92% 29.99 in 6.0 mi West 3.5 mph - N/A   Clear
5:52 AM 27.0 °F - 25.0 °F 92% 29.99 in 5.0 mi Calm Calm - N/A   Clear
6:52 AM 27.0 °F - 24.1 °F 89% 30.01 in 5.0 mi Calm Calm - N/A   Clear
7:28 AM 24.8 °F - 21.2 °F 86% 29.99 in 3.0 mi Calm Calm - N/A   Scattered Clouds
7:52 AM 26.1 °F - 24.1 °F 92% 30.01 in 3.0 mi Calm Calm - N/A   Scattered Clouds
8:07 AM 24.8 °F - 23.0 °F 93% 29.99 in 2.5 mi Calm Calm - N/A   Mostly Cloudy
8:19 AM 26.6 °F - 24.8 °F 93% 29.99 in 0.8 mi Calm Calm - N/A   Mist
8:35 AM 28.4 °F - 26.6 °F 93% 29.99 in 2.0 mi Calm Calm - N/A   Mostly Cloudy
8:43 AM 28.4 °F - 26.6 °F 93% 29.99 in 2.0 mi Calm Calm - N/A   Mostly Cloudy
8:52 AM 28.9 °F - 27.0 °F 92% 30.01 in 2.5 mi Calm Calm - N/A   Mostly Cloudy
9:22 AM 30.2 °F - 28.4 °F 93% 29.98 in 3.0 mi Calm Calm - N/A   Mostly Cloudy
9:52 AM 33.1 °F - 30.0 °F 89% 30.01 in 4.0 mi Calm Calm - N/A   Overcast
10:52 AM 37.0 °F 32.4 °F 33.1 °F 86% 30.00 in 6.0 mi East 5.8 mph - N/A   Overcast
11:52 AM 39.9 °F 35.8 °F 35.1 °F 83% 29.97 in 7.0 mi ENE 5.8 mph - N/A   Overcast
12:52 PM 46.0 °F 41.9 °F 34.0 °F 63% 29.94 in 10.0 mi East 8.1 mph - N/A   Partly Cloudy
1:52 PM 46.9 °F - 34.0 °F 61% 29.92 in 10.0 mi East 10.4 mph - N/A   Clear
2:52 PM 46.9 °F - 34.0 °F 61% 29.89 in 9.0 mi ESE 6.9 mph - N/A   Clear
3:52 PM 45.0 °F 40.1 °F 34.0 °F 65% 29.88 in 9.0 mi SE 9.2 mph - N/A   Mostly Cloudy
4:52 PM 44.1 °F 42.5 °F 34.0 °F 68% 29.88 in 7.0 mi SE 3.5 mph - N/A   Overcast
5:52 PM 44.1 °F 41.5 °F 35.1 °F 71% 29.87 in 5.0 mi ENE 4.6 mph - N/A   Overcast
6:52 PM 44.1 °F 42.5 °F 35.1 °F 71% 29.88 in 7.0 mi East 3.5 mph - N/A   Overcast
7:52 PM 44.1 °F 40.8 °F 36.0 °F 73% 29.87 in 8.0 mi SE 5.8 mph - N/A   Overcast
8:29 PM 42.8 °F 37.5 °F 35.6 °F 76% 29.86 in 9.0 mi SE 9.2 mph - N/A   Overcast
8:52 PM 43.0 °F 38.8 °F 35.1 °F 74% 29.88 in 8.0 mi ESE 6.9 mph - N/A   Overcast
9:52 PM 43.0 °F 39.5 °F 36.0 °F 76% 29.88 in 8.0 mi SE 5.8 mph - N/A   Overcast
10:11 PM 42.8 °F 41.1 °F 37.4 °F 81% 29.87 in 6.0 mi SE 3.5 mph - N/A   Haze
10:52 PM 42.1 °F - 37.9 °F 85% 29.88 in 3.0 mi Calm Calm - 0.00 in   Overcast
11:52 PM 42.1 °F 40.2 °F 39.0 °F 89% 29.88 in 4.0 mi East 3.5 mph - N/A   Overcast